GW3140 Weather Reports


Display with metric or nautical units.
time (UTC)temp
F
wind
direction
speed
MPH
gust
MPH
rain 1hr
in
rain 24hr
in
rain mn
in
humidity
%
barometer
mb
20260831233519 73 0 0.0 1.0 0.00 1.14 0.92 91 1016.2
20260831233036 73 0 0.0 1.0 0.00 1.14 0.92 91 1016.3
20260831232520 73 0 0.0 1.0 0.00 1.14 0.92 91 1016.4
20260831232016 73 0 0.0 0.0 0.00 1.14 0.92 91 1016.3
20260831231538 73 0 0.0 0.0 0.00 1.14 0.92 92 1016.2
20260831231018 73 0 0.0 0.0 0.00 1.14 0.92 91 1016.4
20260831230519 73 0 0.0 0.0 0.00 1.14 0.92 91 1016.6
20260831230033 73 0 0.0 0.0 0.00 1.14 0.92 91 1016.3
20260831225516 73 0 0.0 0.0 0.00 1.16 0.92 91 1016.3
20260831225017 73 0 0.0 0.0 0.00 1.16 0.92 91 1016.3
20260831224536 73 0 0.0 0.0 0.00 1.16 0.92 91 1016.3
20260831224016 73 0 0.0 0.0 0.00 1.16 0.92 91 1016.3
20260831223516 73 0 0.0 0.0 0.00 1.16 0.92 91 1016.4
20260831223035 73 0 0.0 0.0 0.00 1.16 0.92 91 1016.3
20260831222517 73 0 0.0 0.0 0.00 1.16 0.92 90 1016.4
20260831222019 73 0 0.0 0.0 0.00 1.16 0.92 90 1016.4
20260831221537 73 0 0.0 0.0 0.00 1.16 0.92 90 1016.3
20260831221020 74 0 0.0 0.0 0.00 1.16 0.92 90 1016.3
20260831220517 74 0 0.0 0.0 0.00 1.16 0.92 90 1016.4
20260831220034 74 0 0.0 0.0 0.00 1.16 0.92 90 1016.5
20260831215519 74 0 0.0 0.0 0.00 1.27 0.92 90 1016.4
20260831215017 74 0 0.0 0.0 0.00 1.27 0.92 90 1016.4
20260831214537 74 0 0.0 0.0 0.00 1.27 0.92 90 1016.2
20260831214019 74 0 0.0 0.0 0.00 1.27 0.92 89 1016.3
20260831213518 74 0 0.0 0.0 0.00 1.27 0.92 89 1016.3
20260831213036 74 0 0.0 0.0 0.00 1.27 0.92 89 1016.3
20260831212518 74 0 0.0 0.0 0.00 1.27 0.92 89 1016.3
20260831212018 74 0 0.0 0.0 0.00 1.27 0.92 90 1016.4
20260831211533 74 0 0.0 0.0 0.00 1.27 0.92 91 1016.3
20260831211017 74 0 0.0 0.0 0.00 1.27 0.92 91 1016.4
20260831210519 74 0 0.0 0.0 0.00 1.27 0.92 91 1016.2
20260831210036 74 0 0.0 0.0 0.00 1.27 0.92 92 1016.1
20260831205518 74 0 0.0 0.0 0.00 1.36 0.92 94 1016.2
20260831205018 74 0 0.0 0.0 0.00 1.36 0.92 95 1016.1
20260831204534 73 0 0.0 0.0 0.00 1.36 0.92 94 1016.1
20260831204021 73 0 0.0 0.0 0.00 1.36 0.92 93 1016.3
20260831203519 73 0 0.0 0.0 0.00 1.36 0.92 93 1016.4
20260831203033 73 0 0.0 0.0 0.00 1.36 0.92 93 1016.4
20260831202516 72 0 0.0 0.0 0.00 1.36 0.92 93 1016.4
20260831202020 72 0 0.0 0.0 0.00 1.36 0.92 93 1016.8
20260831201535 72 0 0.0 0.0 0.00 1.36 0.92 93 1017.0
20260831201016 72 0 0.0 0.0 0.00 1.36 0.92 93 1016.9
20260831200517 72 0 0.0 0.0 0.00 1.36 0.92 93 1017.0
20260831200036 72 0 0.0 0.0 0.00 1.36 0.92 93 1016.9
20260831195519 72 0 0.0 0.0 0.01 1.47 0.92 93 1016.7
20260831195019 72 0 0.0 0.0 0.01 1.47 0.92 93 1016.8
20260831194533 72 0 0.0 0.0 0.01 1.47 0.92 93 1016.6
20260831194018 72 0 0.0 0.0 0.01 1.47 0.92 93 1016.7
20260831193518 72 0 0.0 0.0 0.01 1.47 0.92 92 1017.3
20260831193041 72 0 0.0 0.0 0.00 1.46 0.91 92 1017.6
20260831192516 72 0 0.0 0.0 0.00 1.46 0.91 92 1017.6
20260831192016 73 0 0.0 0.0 0.00 1.46 0.91 92 1016.9
20260831191532 73 0 0.0 0.0 0.00 1.46 0.91 92 1016.8
20260831191017 73 0 0.0 0.0 0.00 1.46 0.91 92 1017.1
20260831190520 73 0 0.0 0.0 0.00 1.46 0.91 92 1017.3
20260831190055 72 0 0.0 0.0 0.00 1.45 0.90 92 1017.4
20260831185518 72 0 0.0 0.0 0.00 1.51 0.90 92 1017.8
20260831185021 72 0 0.0 0.0 0.00 1.51 0.90 91 1018.0
20260831184534 72 0 0.0 0.0 0.00 1.51 0.90 91 1018.1
20260831184020 73 0 0.0 0.0 0.00 1.51 0.90 91 1018.1
20260831183519 73 0 0.0 0.0 0.00 1.51 0.90 92 1018.2
20260831183038 73 0 0.0 0.0 0.00 1.51 0.90 92 1018.2
20260831182516 73 0 0.0 0.0 0.00 1.51 0.90 92 1018.2
20260831182020 72 0 0.0 0.0 0.00 1.51 0.90 92 1018.0
20260831181544 72 0 0.0 0.0 0.00 1.51 0.90 92 1018.0
20260831181017 72 0 0.0 0.0 0.01 1.51 0.90 94 1018.0
20260831180517 72 0 0.0 0.0 0.01 1.51 0.90 94 1018.1
20260831180032 72 0 0.0 0.0 0.01 1.51 0.90 94 1018.2
20260831175516 72 0 0.0 0.0 0.01 1.65 0.90 93 1018.3
20260831175016 71 0 0.0 0.0 0.01 1.65 0.90 94 1018.1
20260831174537 71 0 0.0 0.0 0.01 1.65 0.90 94 1018.1
20260831174018 71 0 0.0 0.0 0.01 1.64 0.89 94 1018.1
20260831173517 71 0 0.0 0.0 0.02 1.64 0.89 93 1018.1
20260831173034 71 0 0.0 0.0 0.06 1.64 0.89 93 1018.2
20260831172519 71 0 0.0 0.0 0.07 1.64 0.89 93 1018.2
20260831172019 71 0 0.0 0.0 0.07 1.64 0.89 93 1018.3
20260831171532 71 0 0.0 0.0 0.07 1.64 0.89 93 1018.4
20260831171017 71 0 0.0 0.0 0.07 1.63 0.88 93 1018.5
20260831170517 71 0 0.0 0.0 0.07 1.63 0.88 93 1018.4
20260831170035 71 0 0.0 0.0 0.12 1.63 0.88 93 1018.5
20260831165517 71 0 0.0 0.0 0.14 1.92 0.88 93 1018.5
20260831165016 71 0 0.0 0.0 0.16 1.92 0.88 92 1018.7
20260831164549 71 0 0.0 0.0 0.18 1.92 0.88 92 1018.7
20260831164017 71 0 0.0 0.0 0.18 1.91 0.88 92 1018.8
20260831163521 71 0 0.0 0.0 0.15 1.88 0.85 92 1018.9
20260831163038 71 0 0.0 0.0 0.13 1.86 0.83 92 1019.2
20260831162520 71 0 0.0 0.0 0.13 1.85 0.82 92 1019.2
20260831162017 72 0 0.0 0.0 0.12 1.85 0.81 91 1019.2
20260831161536 72 0 0.0 0.0 0.12 1.85 0.81 91 1019.2
20260831161018 72 0 0.0 0.0 0.12 1.85 0.81 92 1019.2
20260831160519 73 0 0.0 0.0 0.11 1.83 0.80 92 1019.2
20260831160035 73 0 0.0 0.0 0.06 1.78 0.75 92 1019.3
20260831155518 73 0 0.0 0.0 0.04 1.81 0.74 92 1019.0
20260831155018 73 0 0.0 0.0 0.02 1.79 0.71 91 1018.9
20260831154613 73 0 0.0 0.0 0.01 1.78 0.70 92 1018.6
20260831154019 73 0 0.0 0.0 0.00 1.77 0.70 91 1018.6
20260831153515 73 0 0.0 0.0 0.00 1.77 0.70 91 1018.6
20260831153050 73 0 0.0 0.0 0.00 1.77 0.69 90 1018.5
20260831152519 73 0 0.0 0.0 0.00 1.77 0.69 90 1018.3
20260831152019 74 0 0.0 0.0 0.00 1.77 0.69 89 1018.3
20260831151543 74 0 0.0 0.0 0.00 1.77 0.69 89 1018.3
20260831151018 74 0 0.0 0.0 0.00 1.77 0.69 89 1018.1
20260831150519 74 0 0.0 0.0 0.00 1.77 0.69 89 1018.0
20260831150034 74 0 0.0 0.0 0.00 1.77 0.69 90 1018.0
20260831145516 74 0 0.0 0.0 0.00 1.78 0.69 91 1017.9
20260831145022 73 0 0.0 0.0 0.00 1.78 0.69 91 1017.9
20260831144534 73 0 0.0 0.0 0.00 1.78 0.69 93 1017.8
20260831144017 73 0 0.0 0.0 0.00 1.78 0.69 93 1017.8
20260831143522 73 0 0.0 1.0 0.00 1.78 0.69 94 1017.9
20260831143039 72 0 0.0 1.0 0.00 1.78 0.69 94 1017.9
20260831142518 72 0 0.0 1.0 0.00 1.78 0.69 94 1017.8
20260831142020 72 0 0.0 0.0 0.00 1.78 0.69 95 1017.7
20260831141534 72 0 0.0 0.0 0.00 1.78 0.69 95 1017.9
20260831141017 72 0 0.0 0.0 0.00 1.78 0.69 95 1018.0
20260831140522 72 0 0.0 0.0 0.00 1.78 0.69 95 1017.8
20260831140037 71 0 0.0 0.0 0.00 1.78 0.69 95 1017.8
20260831135517 71 0 0.0 0.0 0.00 1.84 0.69 96 1017.7
20260831135018 71 0 0.0 0.0 0.00 1.84 0.69 96 1017.5
20260831134534 71 0 0.0 1.0 0.00 1.84 0.69 96 1017.3
20260831134016 71 0 0.0 1.0 0.00 1.84 0.69 96 1017.5
20260831133517 71 0 0.0 2.0 0.00 1.84 0.69 96 1017.3
20260831133036 70 0 0.0 2.0 0.00 1.84 0.69 96 1017.5
20260831132517 70 0 0.0 0.0 0.00 1.84 0.69 96 1017.4
20260831132020 70 0 0.0 0.0 0.00 1.84 0.69 95 1017.6
20260831131542 69 0 0.0 0.0 0.01 1.84 0.69 95 1017.5
20260831131021 69 0 0.0 0.0 0.01 1.84 0.69 95 1017.4
20260831130519 69 0 0.0 0.0 0.01 1.84 0.69 95 1017.7
20260831130034 69 0 0.0 0.0 0.01 1.84 0.69 95 1017.6
20260831125517 69 0 0.0 0.0 0.01 1.92 0.69 95 1017.6
20260831125019 68 0 0.0 0.0 0.01 1.92 0.69 95 1017.7
20260831124535 68 0 0.0 0.0 0.01 1.91 0.68 95 1017.7
20260831124017 68 0 0.0 0.0 0.01 1.91 0.68 95 1017.5
20260831123519 68 0 0.0 0.0 0.02 1.91 0.68 95 1017.4
20260831123036 68 0 0.0 0.0 0.02 1.91 0.68 95 1017.2
20260831122520 68 0 0.0 1.0 0.03 1.91 0.68 95 1017.0
20260831122024 68 0 0.0 3.0 0.03 1.91 0.68 95 1017.1
20260831121536 68 0 0.0 3.0 0.02 1.90 0.67 95 1016.9
20260831121021 68 0 0.0 0.0 0.03 1.90 0.67 95 1016.9
20260831120520 68 0 0.0 0.0 0.06 1.90 0.67 95 1017.2
20260831120040 68 0 0.0 0.0 0.08 1.90 0.67 94 1017.6
20260831115516 68 0 0.0 0.0 0.21 1.92 0.67 95 1017.7
20260831115019 68 0 0.0 0.0 0.33 1.92 0.67 95 1017.9
20260831114534 68 0 0.0 0.0 0.35 1.91 0.66 95 1017.9
20260831114018 68 0 0.0 0.0 0.40 1.90 0.66 94 1018.1
20260831113518 68 0 0.0 0.0 0.44 1.90 0.66 94 1018.1
20260831113034 68 0 0.0 0.0 0.44 1.90 0.66 94 1018.1
20260831112519 68 0 0.0 0.0 0.44 1.89 0.65 94 1018.2
20260831112017 68 0 0.0 0.0 0.44 1.89 0.65 94 1018.1
20260831111537 68 0 0.0 0.0 0.43 1.88 0.64 94 1018.1
20260831111021 68 0 0.0 0.0 0.43 1.88 0.63 94 1018.0
20260831110516 68 0 0.0 0.0 0.44 1.85 0.61 94 1018.0
20260831110033 68 0 0.0 0.0 0.40 1.80 0.55 94 1018.0
20260831105516 67 0 0.0 0.0 0.29 1.69 0.44 94 1018.0
20260831105018 68 0 0.0 0.0 0.17 1.56 0.32 94 1018.2
20260831104546 67 0 0.0 0.0 0.16 1.55 0.31 94 1018.0
20260831104021 67 0 0.0 0.0 0.09 1.48 0.24 94 1017.8
20260831103520 67 0 0.0 0.0 0.06 1.45 0.21 94 1017.7
20260831103038 67 0 0.0 0.0 0.06 1.45 0.21 94 1017.8
20260831102520 67 0 0.0 0.0 0.06 1.45 0.21 95 1017.9
20260831102024 67 0 0.0 0.0 0.06 1.45 0.21 95 1017.9
20260831101544 67 0 0.0 0.0 0.07 1.45 0.21 94 1017.6
20260831101019 67 0 0.0 0.0 0.07 1.44 0.20 94 1017.7
20260831100520 67 0 0.0 0.0 0.02 1.40 0.15 94 1017.5
20260831100033 67 0 0.0 0.0 0.01 1.39 0.14 94 1017.6
20260831095516 67 0 0.0 0.0 0.01 1.39 0.14 94 1017.5
20260831095018 67 0 0.0 0.0 0.01 1.39 0.14 94 1017.5
20260831094543 67 0 0.0 0.0 0.01 1.39 0.14 94 1017.4
20260831094018 67 0 0.0 0.0 0.01 1.39 0.14 94 1017.5
20260831093519 67 0 0.0 0.0 0.01 1.39 0.14 94 1017.5
20260831093101 67 0 0.0 0.0 0.01 1.39 0.14 94 1017.6
20260831092519 67 0 0.0 0.0 0.01 1.39 0.14 94 1017.7
20260831092017 67 0 0.0 0.0 0.01 1.39 0.14 94 1017.6
20260831091546 67 0 0.0 0.0 0.00 1.38 0.14 94 1017.5
20260831091016 67 0 0.0 0.0 0.00 1.37 0.13 94 1017.4
20260831090518 67 0 0.0 0.0 0.00 1.37 0.13 94 1017.6
20260831090036 67 0 0.0 0.0 0.00 1.37 0.13 94 1017.6
20260831085517 67 0 0.0 0.0 0.00 1.37 0.13 94 1017.7
20260831085016 67 0 0.0 0.0 0.00 1.37 0.13 94 1017.7
20260831084627 67 0 0.0 0.0 0.00 1.37 0.13 94 1017.7
20260831084018 67 0 0.0 0.0 0.00 1.37 0.13 94 1017.7
20260831083519 67 0 0.0 0.0 0.00 1.37 0.13 94 1017.6
20260831083046 67 0 0.0 0.0 0.00 1.37 0.13 94 1017.6
20260831082519 67 0 0.0 0.0 0.00 1.37 0.13 94 1017.5
20260831082021 67 0 0.0 0.0 0.00 1.37 0.13 94 1017.7
20260831081535 67 0 0.0 0.0 0.00 1.37 0.13 94 1017.6
20260831081018 67 0 0.0 0.0 0.00 1.37 0.13 94 1017.6
20260831080516 66 0 0.0 0.0 0.03 1.37 0.13 94 1017.6
20260831080050 66 0 0.0 0.0 0.03 1.37 0.13 94 1017.6
20260831075516 66 0 0.0 0.0 0.03 1.37 0.13 94 1017.6
20260831075021 66 0 0.0 0.0 0.03 1.37 0.13 94 1017.7
20260831074547 66 0 0.0 0.0 0.03 1.37 0.13 94 1017.7
20260831074018 66 0 0.0 0.0 0.03 1.37 0.13 94 1017.7
20260831073517 66 0 0.0 0.0 0.03 1.37 0.13 94 1017.7
20260831073042 66 0 0.0 0.0 0.02 1.37 0.12 94 1017.7
20260831072521 66 0 0.0 0.0 0.02 1.37 0.12 94 1017.8
20260831072016 66 0 0.0 0.0 0.02 1.37 0.12 94 1017.9
20260831071545 66 0 0.0 0.0 0.03 1.37 0.12 94 1017.9
20260831071019 66 0 0.0 0.0 0.11 1.37 0.12 94 1018.0
20260831070518 66 0 0.0 0.0 0.10 1.34 0.10 94 1018.1
20260831070038 66 0 0.0 0.0 0.10 1.34 0.10 94 1018.0
20260831065520 66 0 0.0 1.0 0.10 1.34 0.10 94 1018.1
20260831065021 66 0 0.0 1.0 0.10 1.34 0.10 94 1018.0
20260831064545 66 0 0.0 1.0 0.10 1.34 0.10 94 1018.0
20260831064020 65 0 0.0 0.0 0.10 1.34 0.10 94 1018.0
20260831063519 65 0 0.0 0.0 0.10 1.34 0.10 94 1017.9
20260831063100 65 0 0.0 0.0 0.10 1.34 0.10 94 1018.0
20260831062519 65 0 0.0 0.0 0.10 1.34 0.10 94 1018.2
20260831062021 65 0 0.0 0.0 0.09 1.33 0.09 93 1018.1
20260831061536 65 0 0.0 0.0 0.07 1.31 0.07 94 1018.1
20260831061018 65 0 0.0 0.0 0.00 1.24 0.00 93 1018.0
20260831060517 65 0 0.0 0.0 0.00 1.24 0.00 93 1018.3
20260831060040 65 0 0.0 1.0 0.00 1.24 0.00 93 1018.4
20260831055517 65 0 0.0 1.0 0.00 1.24 0.00 93 1018.3
20260831055019 65 0 0.0 0.0 0.00 1.24 0.00 93 1018.4
20260831054535 64 0 0.0 0.0 0.00 1.24 0.00 93 1018.3
20260831054017 64 0 0.0 0.0 0.00 1.24 0.00 93 1018.4
20260831053517 64 0 0.0 0.0 0.00 1.24 0.00 93 1018.4
20260831053052 64 0 0.0 0.0 0.00 1.24 0.00 93 1018.4
20260831052517 64 0 0.0 0.0 0.00 1.24 0.00 93 1018.5
20260831052020 64 0 0.0 0.0 0.00 1.24 0.00 93 1018.5
20260831051540 64 0 0.0 0.0 0.00 1.24 0.00 93 1018.3
20260831051017 64 0 0.0 0.0 0.00 1.24 0.00 92 1018.3
20260831050523 64 0 0.0 0.0 0.00 1.24 0.00 92 1018.4
20260831050039 64 0 0.0 0.0 0.00 1.24 0.00 92 1018.5
20260831045523 64 0 0.0 0.0 0.00 1.24 0.00 92 1018.6
20260831045019 64 0 0.0 0.0 0.00 1.24 0.00 92 1018.6
20260831044535 64 0 0.0 0.0 0.00 1.24 0.00 93 1018.6
20260831044017 64 0 0.0 0.0 0.00 1.24 0.00 93 1018.5
20260831043518 64 0 0.0 0.0 0.00 1.24 0.00 93 1018.5
20260831043043 64 0 0.0 2.0 0.00 1.24 0.00 93 1018.5
20260831042517 63 0 0.0 2.0 0.00 1.24 0.00 93 1018.5
20260831042017 63 0 0.0 0.0 0.00 1.24 0.00 93 1018.4
20260831041543 63 0 0.0 0.0 0.00 1.24 0.00 93 1018.3
20260831041022 63 0 0.0 0.0 0.00 1.24 0.00 93 1018.3
20260831040519 63 0 0.0 0.0 0.00 1.24 0.00 93 1018.4
20260831040042 63 0 0.0 0.0 0.00 1.24 0.00 93 1018.3
20260831035517 63 0 0.0 0.0 0.00 1.24 1.24 93 1018.3
20260831035019 63 0 0.0 0.0 0.00 1.24 1.24 93 1018.2
20260831034539 63 0 0.0 0.0 0.00 1.24 1.24 93 1018.4
20260831034016 63 0 0.0 0.0 0.00 1.24 1.24 93 1018.3
20260831033518 63 0 0.0 0.0 0.00 1.24 1.24 93 1018.3
20260831033041 63 0 0.0 0.0 0.00 1.24 1.24 93 1018.3
20260831032518 63 0 0.0 0.0 0.00 1.24 1.24 93 1018.3
20260831032018 63 0 0.0 0.0 0.00 1.24 1.24 93 1018.2
20260831031534 63 0 0.0 0.0 0.00 1.24 1.24 93 1018.2
20260831031017 63 0 0.0 0.0 0.00 1.24 1.24 92 1018.2
20260831030519 63 0 0.0 0.0 0.00 1.24 1.24 93 1018.2
20260831030046 63 0 0.0 0.0 0.00 1.24 1.24 92 1018.3
20260831025518 63 0 0.0 2.0 0.00 1.24 1.24 92 1018.3
20260831025018 63 0 0.0 2.0 0.00 1.24 1.24 92 1018.3
20260831024546 64 0 0.0 2.0 0.00 1.24 1.24 93 1018.3
20260831024019 64 0 0.0 2.0 0.00 1.24 1.24 93 1018.4
20260831023522 64 0 0.0 2.0 0.00 1.24 1.24 93 1018.4
20260831023040 64 0 0.0 2.0 0.00 1.24 1.24 93 1018.4
20260831022519 64 0 0.0 2.0 0.00 1.24 1.24 93 1018.5
20260831022019 64 0 0.0 3.0 0.00 1.24 1.24 93 1018.4
20260831021536 64 0 0.0 3.0 0.00 1.24 1.24 93 1018.2
20260831021017 64 0 0.0 3.0 0.01 1.24 1.24 93 1018.4
20260831020518 64 207 0.0 4.0 0.03 1.24 1.24 93 1018.4
20260831020039 64 0 0.0 4.0 0.03 1.24 1.24 93 1018.5
20260831015516 64 0 0.0 4.0 0.03 1.24 1.24 93 1018.6
20260831015019 64 206 0.0 4.0 0.03 1.24 1.24 93 1018.7
20260831014540 64 0 0.0 4.0 0.03 1.24 1.24 93 1018.6
20260831014020 64 148 1.0 8.0 0.05 1.23 1.23 92 1018.6
20260831013519 64 0 1.0 8.0 0.07 1.23 1.23 92 1018.5
20260831013035 64 0 1.0 8.0 0.11 1.23 1.23 92 1018.5
20260831012518 64 0 1.0 5.0 0.11 1.23 1.23 93 1018.4
20260831012018 64 144 1.0 5.0 0.11 1.23 1.23 93 1018.7
20260831011534 64 230 1.0 4.0 0.13 1.23 1.23 93 1018.8
20260831011016 65 194 0.0 3.0 0.14 1.22 1.22 93 1018.8
20260831010518 65 0 0.0 3.0 0.14 1.21 1.21 93 1018.9
20260831010036 65 0 0.0 0.0 0.15 1.21 1.21 93 1019.1
20260831005516 65 0 0.0 2.0 0.15 1.21 1.21 93 1019.1
20260831005023 65 0 0.0 2.0 0.15 1.21 1.21 93 1019.1
20260831004542 65 0 0.0 2.0 0.14 1.20 1.20 93 1019.1
20260831004018 65 0 0.0 0.0 0.12 1.18 1.18 93 1019.2
20260831003522 65 0 0.0 1.0 0.11 1.15 1.15 93 1019.2
20260831003036 65 0 0.0 1.0 0.08 1.12 1.12 93 1019.1
20260831002516 65 0 0.0 1.0 0.08 1.11 1.11 93 1019.1
20260831002020 66 0 0.0 0.0 0.08 1.11 1.11 93 1019.2
20260831001540 66 0 0.0 0.0 0.07 1.10 1.10 93 1019.3
20260831001019 66 0 0.0 0.0 0.05 1.07 1.07 93 1019.3
20260831000517 66 0 0.0 0.0 0.04 1.07 1.07 93 1019.4
20260831000037 66 0 0.0 0.0 0.03 1.05 1.05 93 1019.5
20260830235518 66 0 0.0 1.0 0.03 1.05 1.05 93 1019.5
20260830235019 66 0 0.0 1.0 0.03 1.05 1.05 93 1019.6
20260830234543 66 0 0.0 1.0 0.03 1.05 1.05 94 1019.4
20260830234017 66 0 0.0 0.0 0.03 1.05 1.05 94 1019.5